Change the Weather History Date:

Wednesday, March 6, 2013

  Actual Average (YBBN) Record (YBBN)
Temperature  
Mean Temperature 74 °F -  
Max Temperature 80 °F 81 °F 87 °F (1998)
Min Temperature 69 °F 67 °F 61 °F (2014)
Cooling Degree Days 10    
Growing Degree Days 24 (Base 50)    
Moisture  
Dew Point 64 °F    
Average Humidity 71    
Maximum Humidity 94    
Minimum Humidity 49    
Precipitation  
Precipitation 0.12 in - - ()
Sea Level Pressure  
Sea Level Pressure 30.02 in    
Wind  
Wind Speed 13 mph ()    
Max Wind Speed 23 mph    
Max Gust Speed 30 mph    
Visibility 6.0 miles    
Events      
Averages and records for this station are not official NWS values.
T = Trace of Precipitation, MM = Missing Value Source: Averaged Metar Reports

Daily Weather History Graph

Daily Weather History Graph

Search for Another Location

Airport or City:

Trip Planner

Search our weather history database for the weather conditions in past years. The results will help you decide how hot, cold, wet, or windy it might be!

Date:

Astronomy

Mar. 06, 2013 Rise Set
Actual Time 5:41 AM AEST 6:12 PM AEST
Civil Twilight 5:17 AM AEST 6:36 PM AEST
Nautical Twilight 4:49 AM AEST 7:04 PM AEST
Astronomical Twilight 4:21 AM AEST 7:32 PM AEST
Moon No Moon Rise 1:42 PM AEST (3/6)
Length of Visible Light 13h 19m
Length of Day
12h 31m
Last Quarter, 37% of the Moon is Illuminated
Mar 6
Last Quarter
Mar 12
New
Mar 20
First Quarter
Mar 27
Full
Apr 3
Last Quarter

Hourly Weather History & Observations

Time (AEST) Temp. Heat Index Dew Point Humidity Pressure Visibility Wind Dir Wind Speed Gust Speed Precip Events Conditions
12:00 AM 74 °F - 62 °F 56% 30.03 in - SE 10.4 mph - -   Overcast
12:00 AM 73.4 °F - 60.8 °F 65% 30.04 in 6.2 mi SE 10.4 mph - N/A   Overcast
12:30 AM 73.4 °F - 62.6 °F 69% 30.01 in 6.2 mi SE 15.0 mph - N/A   Mostly Cloudy
1:00 AM 73.4 °F - 62.6 °F 69% 30.01 in 6.2 mi SE 15.0 mph - N/A   Overcast
1:30 AM 73.4 °F - 62.6 °F 69% 30.01 in 6.2 mi SSE 12.7 mph - N/A   Scattered Clouds
2:00 AM 73.4 °F - 60.8 °F 65% 29.98 in 6.2 mi SE 13.8 mph - N/A   Unknown
2:30 AM 73.4 °F - 62.6 °F 69% 29.98 in 6.2 mi SSE 12.7 mph - N/A   Overcast
3:00 AM 74 °F - 62 °F 57% 29.99 in - SE 15.0 mph - -   Overcast
3:00 AM 75.2 °F - 62.6 °F 65% 29.98 in 6.2 mi SE 15.0 mph - N/A   Overcast
3:30 AM 75.2 °F - 60.8 °F 61% 29.98 in 6.2 mi SE 12.7 mph - N/A   Overcast
4:00 AM 75.2 °F - 60.8 °F 61% 29.98 in 6.2 mi SE 13.8 mph - N/A   Overcast
4:30 AM 71.6 °F - 64.4 °F 78% 29.98 in 6.2 mi ESE 13.8 mph - N/A   Overcast
5:00 AM 73.4 °F - 64.4 °F 73% 30.01 in 6.2 mi ESE 16.1 mph - N/A   Overcast
5:30 AM 71.6 °F - 64.4 °F 78% 30.01 in 6.2 mi SE 10.4 mph - N/A   Overcast
6:00 AM 73 °F - 63 °F 63% 30.02 in - ESE 12.7 mph - -   Overcast
6:00 AM 73.4 °F - 62.6 °F 69% 30.01 in 6.2 mi ESE 12.7 mph - N/A   Mostly Cloudy
6:30 AM 75.2 °F - 62.6 °F 65% 30.01 in 6.2 mi ESE 17.3 mph - N/A   Scattered Clouds
7:00 AM 75.2 °F - 62.6 °F 65% 30.04 in 6.2 mi ESE 15.0 mph - N/A   Mostly Cloudy
7:30 AM 75.2 °F - 62.6 °F 65% 30.04 in 6.2 mi SE 13.8 mph - N/A   Mostly Cloudy
8:00 AM 75.2 °F - 62.6 °F 65% 30.04 in 6.2 mi SE 13.8 mph - N/A   Overcast
8:30 AM 77.0 °F - 64.4 °F 65% 30.04 in 6.2 mi SE 13.8 mph - N/A   Overcast
9:00 AM 77 °F - 65 °F 57% 30.05 in - ESE 19.6 mph - -  
9:00 AM 77.0 °F - 64.4 °F 65% 30.04 in 6.2 mi ESE 19.6 mph - N/A   Mostly Cloudy
9:30 AM 78.8 °F - 62.6 °F 57% 30.06 in 6.2 mi SE 16.1 mph - N/A   Overcast
10:00 AM 80.6 °F 82.3 °F 64.4 °F 58% 30.04 in 6.2 mi SE 16.1 mph - N/A   Overcast
10:30 AM 78.8 °F - 64.4 °F 61% 30.04 in 6.2 mi South 13.8 mph - N/A   Mostly Cloudy
11:00 AM 78.8 °F - 64.4 °F 61% 30.04 in 6.2 mi SSE 13.8 mph - N/A   Overcast
11:30 AM 78.8 °F - 66.2 °F 65% 30.04 in 6.2 mi SE 19.6 mph - N/A   Overcast
12:00 PM 78 °F - 62 °F 49% 30.04 in - SE 23.0 mph - -  
12:00 PM 78.8 °F - 62.6 °F 57% 30.04 in 6.2 mi SE 23.0 mph - N/A   Mostly Cloudy
12:30 PM 80.6 °F 82.3 °F 64.4 °F 58% 30.01 in 6.2 mi SE 20.7 mph - N/A   Mostly Cloudy
1:00 PM 77.0 °F - 64.4 °F 65% 30.01 in 6.2 mi SE 20.7 mph - N/A   Mostly Cloudy
1:37 PM 78.8 °F - 66.2 °F 65% 30.01 in 6.2 mi SE 18.4 mph 29.9 mph N/A   Overcast
2:00 PM 77.0 °F - 64.4 °F 65% 30.01 in 6.2 mi ESE 20.7 mph - N/A   Overcast
2:30 PM 75.2 °F - 66.2 °F 73% 30.01 in 6.2 mi SE 18.4 mph - N/A   Overcast
3:00 PM 77 °F - 65 °F 58% 30.01 in - SSE 15.0 mph - -   Overcast
3:00 PM 77.0 °F - 64.4 °F 65% 30.01 in 6.2 mi SSE 15.0 mph - N/A   Overcast
3:30 PM 75.2 °F - 64.4 °F 69% 30.01 in 6.2 mi South 16.1 mph - N/A   Mostly Cloudy
3:56 PM 71.6 °F - 64.4 °F 78% 30.01 in 3.7 mi South 16.1 mph - N/A   Overcast
4:00 PM 71.6 °F - 66.2 °F 83% 30.01 in - South 15.0 mph - N/A   Overcast
4:30 PM 69.8 °F - 66.2 °F 88% 30.01 in 6.2 mi South 9.2 mph - N/A   Overcast
4:31 PM 69.8 °F - 68.0 °F 94% 30.01 in 6.2 mi South 9.2 mph - N/A   Overcast
5:00 PM 69.8 °F - 68.0 °F 94% 30.01 in 6.2 mi South 9.2 mph - N/A   Overcast
5:30 PM 71.6 °F - 66.2 °F 83% 30.01 in 6.2 mi South 6.9 mph - N/A   Overcast
6:00 PM 70 °F - 66 °F 85% 30.03 in - East 15.0 mph - -   Overcast
6:03 PM 69.8 °F - 66.2 °F 88% 30.01 in 3.1 mi East 15.0 mph - N/A   Overcast
6:23 PM 69.8 °F - 68.0 °F 94% 30.01 in 6.2 mi ESE 10.4 mph - N/A   Overcast
6:31 PM 69.8 °F - 66.2 °F 88% 30.04 in 3.7 mi East 15.0 mph 26.5 mph N/A   Overcast
7:00 PM 69.8 °F - 66.2 °F 88% 30.04 in 5.0 mi ESE 16.1 mph - N/A   Overcast
7:08 PM 71.6 °F - 66.2 °F 83% 30.04 in 6.2 mi East 16.1 mph - N/A   Overcast
7:33 PM 69.8 °F - 66.2 °F 88% 30.04 in 3.1 mi ESE 16.1 mph - N/A   Overcast
8:00 PM 71.6 °F - 66.2 °F 83% 30.04 in 6.2 mi ESE 13.8 mph - N/A   Overcast
8:03 PM 71.6 °F - 66.2 °F 83% 30.04 in 6.2 mi ESE 13.8 mph - N/A   Overcast
8:30 PM 71.6 °F - 66.2 °F 83% 30.04 in 6.2 mi ESE 17.3 mph - N/A   Overcast
9:00 PM 72 °F - 65 °F 73% 30.06 in - SE 10.4 mph - -   Overcast
9:00 PM 71.6 °F - 64.4 °F 78% 30.04 in 6.2 mi SE 10.4 mph - N/A   Overcast
9:30 PM 71.6 °F - 66.2 °F 83% 30.04 in 6.2 mi SSE 9.2 mph - N/A   Overcast
10:00 PM 73.4 °F - 66.2 °F 78% 30.04 in 6.2 mi ESE 10.4 mph - N/A   Overcast
10:30 PM 73.4 °F - 64.4 °F 73% 30.04 in 6.2 mi SE 11.5 mph - N/A   Overcast
11:00 PM 73.4 °F - 62.6 °F 69% 30.04 in 6.2 mi SE 13.8 mph - N/A   Overcast
11:30 PM 71.6 °F - 62.6 °F 73% 30.04 in 6.2 mi SSE 9.2 mph - N/A   Overcast